FW1574 Weather Reports


Display with metric or nautical units.
time (UTC)temp
F
wind
direction
speed
MPH
gust
MPH
rain 1hr
in
rain 24hr
in
rain mn
in
humidity
%
barometer
mb
20260904164002 90 345 0.0 0.0 0.00 0.00 0.00 63 1015.6
20260904163502 90 355 0.0 0.0 0.00 0.00 0.00 65 1015.6
20260904163000 90 293 0.0 0.0 0.00 0.00 0.00 68 1015.6
20260904162600 90 11 0.0 0.0 0.00 0.00 0.00 65 1015.7
20260904162103 89 239 0.0 0.0 0.00 0.00 0.00 65 1015.7
20260904161627 89 247 0.0 0.0 0.00 0.00 0.00 67 1015.8
20260904161100 89 344 0.0 0.0 0.00 0.00 0.00 67 1015.8
20260904160557 89 344 0.0 0.0 0.00 0.00 0.00 67 1015.8
20260904160057 88 272 0.0 0.0 0.00 0.00 0.00 68 1015.8
20260904155555 88 278 0.0 0.0 0.00 0.00 0.00 69 1015.9
20260904155054 88 349 0.0 0.0 0.00 0.00 0.00 69 1016.0
20260904154553 88 349 0.0 0.0 0.00 0.00 0.00 68 1016.0
20260904154053 88 241 0.0 0.0 0.00 0.00 0.00 69 1016.0
20260904153552 87 241 0.0 0.0 0.00 0.00 0.00 69 1016.0
20260904153055 87 210 0.0 0.0 0.00 0.00 0.00 70 1016.0
20260904152551 87 219 0.0 0.0 0.00 0.00 0.00 70 1016.0
20260904152051 87 355 0.0 0.0 0.00 0.00 0.00 70 1016.1
20260904151551 87 63 0.0 0.0 0.00 0.00 0.00 70 1016.1
20260904151049 87 84 0.0 0.0 0.00 0.00 0.00 71 1016.1
20260904150548 86 91 0.0 0.0 0.00 0.00 0.00 72 1016.1
20260904150056 86 217 0.0 0.0 0.00 0.00 0.00 72 1015.9
20260904145547 86 190 0.0 0.0 0.00 0.00 0.00 73 1016.0
20260904145045 85 234 0.0 0.0 0.00 0.00 0.00 74 1015.9
20260904144558 85 234 0.0 0.0 0.00 0.00 0.00 74 1015.8
20260904144044 84 228 0.0 0.0 0.00 0.00 0.00 73 1015.9
20260904143543 84 228 0.0 0.0 0.00 0.00 0.00 75 1015.9
20260904143050 84 335 0.0 0.0 0.00 0.00 0.00 76 1016.0
20260904142541 84 225 0.0 0.0 0.00 0.00 0.00 77 1016.0
20260904142042 84 225 0.0 0.0 0.00 0.00 0.00 77 1015.9
20260904141540 83 224 0.0 0.0 0.00 0.00 0.00 77 1015.9
20260904141038 83 221 0.0 0.0 0.00 0.00 0.00 79 1016.0
20260904140538 83 222 0.0 0.0 0.00 0.00 0.00 79 1015.9
20260904140050 82 62 0.0 0.0 0.00 0.00 0.00 79 1015.9
20260904135539 82 62 0.0 0.0 0.00 0.00 0.00 82 1015.8
20260904135036 82 62 0.0 0.0 0.00 0.00 0.00 82 1015.7
20260904134537 82 74 0.0 0.0 0.00 0.00 0.00 82 1015.7
20260904134033 81 148 0.0 0.0 0.00 0.00 0.00 85 1015.8
20260904133532 79 95 0.0 0.0 0.00 0.00 0.00 90 1015.8
20260904133033 77 95 0.0 0.0 0.00 0.00 0.00 96 1015.7
20260904132531 76 95 0.0 0.0 0.00 0.00 0.00 97 1015.9
20260904132033 76 95 0.0 0.0 0.00 0.00 0.00 97 1015.8
20260904131530 75 95 0.0 0.0 0.00 0.00 0.00 97 1015.8
20260904131030 75 95 0.0 0.0 0.00 0.00 0.00 97 1015.8
20260904130529 75 95 0.0 0.0 0.00 0.00 0.00 96 1015.7
20260904130030 75 95 0.0 0.0 0.00 0.00 0.00 97 1015.7
20260904125529 74 95 0.0 0.0 0.00 0.00 0.00 96 1015.7
20260904125029 74 95 0.0 0.0 0.00 0.00 0.00 96 1015.7
20260904124529 74 95 0.0 0.0 0.00 0.00 0.00 96 1015.8
20260904124028 74 95 0.0 0.0 0.00 0.00 0.00 96 1015.8
20260904123531 73 95 0.0 0.0 0.00 0.00 0.00 96 1015.8
20260904123028 73 95 0.0 0.0 0.00 0.00 0.00 96 1015.8
20260904122530 73 95 0.0 0.0 0.00 0.00 0.00 96 1015.8
20260904122026 73 95 0.0 0.0 0.00 0.00 0.00 96 1015.7
20260904121526 73 95 0.0 0.0 0.00 0.00 0.00 95 1015.6
20260904121026 73 95 0.0 0.0 0.00 0.00 0.00 95 1015.5
20260904120525 73 95 0.0 0.0 0.00 0.00 0.00 95 1015.6
20260904120026 73 95 0.0 0.0 0.00 0.00 0.00 95 1015.7
20260904115525 73 95 0.0 0.0 0.00 0.00 0.00 95 1015.6
20260904115027 73 95 0.0 0.0 0.00 0.00 0.00 95 1015.6
20260904114530 73 95 0.0 0.0 0.00 0.00 0.00 95 1015.6
20260904114024 73 95 0.0 0.0 0.00 0.00 0.00 95 1015.5
20260904113527 73 95 0.0 0.0 0.00 0.00 0.00 95 1015.5
20260904113030 73 95 0.0 0.0 0.00 0.00 0.00 95 1015.4
20260904112521 73 95 0.0 0.0 0.00 0.00 0.00 95 1015.4
20260904112021 73 95 0.0 0.0 0.00 0.00 0.00 95 1015.3
20260904111523 73 95 0.0 0.0 0.00 0.00 0.00 95 1015.3
20260904111021 73 95 0.0 0.0 0.00 0.00 0.00 95 1015.3
20260904110521 73 95 0.0 0.0 0.00 0.00 0.00 95 1015.3
20260904110020 73 95 0.0 0.0 0.00 0.00 0.00 95 1015.3
20260904105525 73 95 0.0 0.0 0.00 0.00 0.00 95 1015.1
20260904105020 73 95 0.0 0.0 0.00 0.00 0.00 94 1015.1
20260904104519 73 95 0.0 0.0 0.00 0.00 0.00 94 1015.0
20260904104017 73 95 0.0 0.0 0.00 0.00 0.00 94 1015.0
20260904103517 73 95 0.0 0.0 0.00 0.00 0.00 94 1014.9
20260904103017 73 95 0.0 0.0 0.00 0.00 0.00 94 1014.8
20260904102517 73 95 0.0 0.0 0.00 0.00 0.00 94 1014.8
20260904102017 73 95 0.0 0.0 0.00 0.00 0.00 94 1014.8
20260904101516 73 95 0.0 0.0 0.00 0.00 0.00 94 1014.7
20260904101015 73 95 0.0 0.0 0.00 0.00 0.00 94 1014.7
20260904100515 73 95 0.0 0.0 0.00 0.00 0.00 94 1014.7
20260904100015 73 95 0.0 0.0 0.00 0.00 0.00 94 1014.7
20260904095515 73 95 0.0 0.0 0.00 0.00 0.00 94 1014.6
20260904095014 73 95 0.0 0.0 0.00 0.00 0.00 94 1014.7
20260904094525 74 95 0.0 0.0 0.00 0.00 0.00 94 1014.7
20260904094013 74 95 0.0 0.0 0.00 0.00 0.00 94 1014.6
20260904093512 74 95 0.0 0.0 0.00 0.00 0.00 94 1014.6
20260904093012 74 95 0.0 0.0 0.00 0.00 0.00 94 1014.5
20260904092511 74 95 0.0 0.0 0.00 0.00 0.00 94 1014.6
20260904092010 74 95 0.0 0.0 0.00 0.00 0.00 94 1014.5
20260904091511 74 95 0.0 0.0 0.00 0.00 0.00 94 1014.5
20260904091011 74 95 0.0 0.0 0.00 0.00 0.00 94 1014.5
20260904090509 74 95 0.0 0.0 0.00 0.00 0.00 94 1014.5
20260904090009 74 95 0.0 0.0 0.00 0.00 0.00 94 1014.5
20260904085513 74 95 0.0 0.0 0.00 0.00 0.00 94 1014.4
20260904085009 74 95 0.0 0.0 0.00 0.00 0.00 94 1014.3
20260904084509 74 95 0.0 0.0 0.00 0.00 0.00 94 1014.4
20260904084008 74 95 0.0 0.0 0.00 0.00 0.00 94 1014.3
20260904083508 74 95 0.0 0.0 0.00 0.00 0.00 94 1014.3
20260904083008 74 95 0.0 0.0 0.00 0.00 0.00 94 1014.3
20260904082510 74 95 0.0 0.0 0.00 0.00 0.00 94 1014.3
20260904082008 74 95 0.0 0.0 0.00 0.00 0.00 94 1014.3
20260904081507 74 95 0.0 0.0 0.00 0.00 0.00 94 1014.3
20260904081007 74 95 0.0 0.0 0.00 0.00 0.00 94 1014.3
20260904080506 74 95 0.0 0.0 0.00 0.00 0.00 94 1014.3
20260904080006 75 95 0.0 0.0 0.00 0.00 0.00 94 1014.2
20260904075510 75 95 0.0 0.0 0.00 0.00 0.00 94 1014.2
20260904075006 75 95 0.0 0.0 0.00 0.00 0.00 94 1014.2
20260904074506 75 95 0.0 0.0 0.00 0.00 0.00 94 1014.2
20260904074005 75 95 0.0 0.0 0.00 0.00 0.00 94 1014.2
20260904073509 75 95 0.0 0.0 0.00 0.00 0.00 94 1014.1
20260904073005 75 95 0.0 0.0 0.00 0.00 0.00 94 1014.1
20260904072504 75 95 0.0 0.0 0.00 0.00 0.00 94 1014.0
20260904072004 75 95 0.0 0.0 0.00 0.00 0.00 94 1014.0
20260904071504 75 95 0.0 0.0 0.00 0.00 0.00 93 1014.0
20260904071003 75 95 0.0 0.0 0.00 0.00 0.00 93 1014.0
20260904070503 75 95 0.0 0.0 0.00 0.00 0.00 93 1014.1
20260904070004 75 95 0.0 0.0 0.00 0.00 0.00 93 1014.1
20260904065503 75 95 0.0 0.0 0.00 0.00 0.00 93 1014.2
20260904065001 75 95 0.0 0.0 0.00 0.00 0.00 93 1014.2
20260904064501 75 95 0.0 0.0 0.00 0.00 0.00 93 1014.2
20260904064002 75 95 0.0 0.0 0.00 0.00 0.00 93 1014.2
20260904063502 75 95 0.0 0.0 0.00 0.00 0.00 93 1014.2
20260904063001 75 95 0.0 0.0 0.00 0.00 0.00 94 1014.3
20260904062502 75 95 0.0 0.0 0.00 0.00 0.00 94 1014.3
20260904062001 75 95 0.0 0.0 0.00 0.00 0.00 94 1014.2
20260904061601 75 95 0.0 0.0 0.00 0.00 0.00 94 1014.2
20260904061100 75 95 0.0 0.0 0.00 0.00 0.00 93 1014.2
20260904060600 75 95 0.0 0.0 0.00 0.00 0.00 94 1014.2
20260904060113 75 95 0.0 0.0 0.00 0.00 0.00 94 1014.3
20260904055557 75 95 0.0 0.0 0.00 0.00 0.00 93 1014.3
20260904055059 75 95 0.0 0.0 0.00 0.00 0.00 93 1014.3
20260904054557 75 95 0.0 0.0 0.00 0.00 0.00 93 1014.4
20260904054056 76 95 0.0 0.0 0.00 0.00 0.00 93 1014.3
20260904053555 76 95 0.0 0.0 0.00 0.00 0.00 93 1014.3
20260904053055 76 95 0.0 0.0 0.00 0.00 0.00 93 1014.4
20260904052554 76 95 0.0 0.0 0.00 0.00 0.00 93 1014.5
20260904052054 76 95 0.0 0.0 0.00 0.00 0.00 94 1014.5
20260904051554 76 95 0.0 0.0 0.00 0.00 0.00 93 1014.5
20260904051053 76 95 0.0 0.0 0.00 0.00 0.00 93 1014.5
20260904050552 76 95 0.0 0.0 0.00 0.00 0.00 93 1014.6
20260904050056 76 95 0.0 0.0 0.00 0.00 0.00 93 1014.6
20260904045552 76 95 0.0 0.0 0.00 0.00 0.00 93 1014.6
20260904045051 76 95 0.0 0.0 0.00 0.00 0.00 93 1014.6
20260904044551 76 95 0.0 0.0 0.00 0.00 0.00 93 1014.6
20260904044050 76 95 0.0 0.0 0.00 0.00 0.00 93 1014.7
20260904043553 76 95 0.0 0.0 0.00 0.00 0.00 92 1014.7
20260904043049 77 95 0.0 0.0 0.00 0.00 0.00 92 1014.7
20260904042549 77 95 0.0 0.0 0.00 0.00 0.00 92 1014.8
20260904042049 77 95 0.0 0.0 0.00 0.00 0.00 92 1014.8
20260904041551 77 95 0.0 0.0 0.00 0.00 0.00 92 1014.8
20260904041050 76 95 0.0 0.0 0.00 0.00 0.00 92 1014.8
20260904040548 76 95 0.0 0.0 0.00 0.00 0.00 92 1014.8
20260904040047 76 95 0.0 0.0 0.00 0.00 0.00 92 1014.9
20260904035544 76 95 0.0 0.0 0.00 0.00 0.00 91 1014.9
20260904035046 77 95 0.0 0.0 0.00 0.00 0.00 91 1014.9
20260904034547 77 95 0.0 0.0 0.00 0.00 0.00 91 1014.9
20260904034044 77 95 0.0 0.0 0.00 0.00 0.00 91 1014.9
20260904033546 77 95 0.0 0.0 0.00 0.00 0.00 91 1015.0
20260904033044 77 95 0.0 0.0 0.00 0.00 0.00 90 1015.0
20260904032543 77 95 0.0 0.0 0.00 0.00 0.00 90 1015.0
20260904032043 78 95 0.0 0.0 0.00 0.00 0.00 90 1015.0
20260904031543 78 95 0.0 0.0 0.00 0.00 0.00 89 1015.0
20260904031043 78 95 0.0 0.0 0.00 0.00 0.00 89 1015.0
20260904030543 78 95 0.0 0.0 0.00 0.00 0.00 89 1015.1
20260904030043 78 95 0.0 0.0 0.00 0.00 0.00 89 1015.1
20260904025546 78 95 0.0 0.0 0.00 0.00 0.00 89 1015.1
20260904025043 78 95 0.0 0.0 0.00 0.00 0.00 89 1015.1
20260904024543 79 95 0.0 0.0 0.00 0.00 0.00 89 1015.1
20260904024043 79 95 0.0 0.0 0.00 0.00 0.00 88 1015.1
20260904023542 79 95 0.0 0.0 0.00 0.00 0.00 88 1015.0
20260904023044 79 95 0.0 0.0 0.00 0.00 0.00 88 1015.0
20260904022545 79 95 0.0 0.0 0.00 0.00 0.00 88 1014.9
20260904022042 79 95 0.0 0.0 0.00 0.00 0.00 87 1014.8
20260904021551 79 95 0.0 0.0 0.00 0.00 0.00 86 1014.7
20260904021041 80 95 0.0 0.0 0.00 0.00 0.00 86 1014.6
20260904020541 80 95 0.0 0.0 0.00 0.00 0.00 86 1014.6
20260904020042 80 95 0.0 0.0 0.00 0.00 0.00 86 1014.6
20260904015542 80 95 0.0 0.0 0.00 0.00 0.00 86 1014.5
20260904015041 80 95 0.0 0.0 0.00 0.00 0.00 86 1014.5
20260904014545 80 95 0.0 0.0 0.00 0.00 0.00 86 1014.5
20260904014041 80 95 0.0 0.0 0.00 0.00 0.00 85 1014.4
20260904013540 80 95 0.0 0.0 0.00 0.00 0.00 85 1014.2
20260904013104 80 95 0.0 0.0 0.00 0.00 0.00 85 1014.2
20260904012540 81 95 0.0 0.0 0.00 0.00 0.00 85 1014.0
20260904012040 81 95 0.0 0.0 0.00 0.00 0.00 84 1014.0
20260904011539 81 95 0.0 0.0 0.00 0.00 0.00 84 1014.0
20260904011042 82 95 0.0 0.0 0.00 0.00 0.00 83 1014.0
20260904010539 82 95 0.0 0.0 0.00 0.00 0.00 84 1014.0
20260904010039 82 95 0.0 0.0 0.00 0.00 0.00 84 1013.9
20260904005538 82 95 0.0 0.0 0.00 0.00 0.00 83 1013.8
20260904005041 82 95 0.0 0.0 0.00 0.00 0.00 83 1013.7
20260904004539 82 95 0.0 0.0 0.00 0.00 0.00 84 1013.7
20260904004039 82 95 0.0 0.0 0.00 0.00 0.00 84 1013.6
20260904003538 83 95 0.0 0.0 0.00 0.00 0.00 84 1013.6
20260904003038 83 95 0.0 0.0 0.00 0.00 0.00 83 1013.5
20260904002539 84 95 0.0 0.0 0.00 0.00 0.00 81 1013.4
20260904002039 84 95 0.0 0.0 0.00 0.00 0.00 80 1013.3
20260904001554 85 95 0.0 0.0 0.00 0.00 0.00 78 1013.2
20260904001038 85 95 0.0 0.0 0.00 0.00 0.00 77 1013.1
20260904000541 85 95 0.0 0.0 0.00 0.00 0.00 75 1013.1
20260904000037 86 95 0.0 0.0 0.00 0.00 0.00 73 1013.0
20260903235540 86 95 0.0 0.0 0.00 0.00 0.00 73 1012.9
20260903235036 86 95 0.0 0.0 0.00 0.00 0.00 73 1012.9
20260903234536 87 95 0.0 0.0 0.00 0.00 0.00 73 1012.9
20260903234036 87 95 0.0 0.0 0.00 0.00 0.00 69 1012.9
20260903233535 88 95 0.0 0.0 0.00 0.00 0.00 67 1012.9
20260903233042 88 95 0.0 0.0 0.00 0.00 0.00 65 1012.9
20260903232535 88 95 0.0 0.0 0.00 0.00 0.00 64 1012.8
20260903232035 89 95 0.0 0.0 0.00 0.00 0.00 64 1012.8
20260903231535 89 95 0.0 0.0 0.00 0.00 0.00 66 1012.8
20260903231033 89 95 0.0 0.0 0.00 0.00 0.00 65 1012.8
20260903230537 90 95 0.0 0.0 0.00 0.00 0.00 63 1012.8
20260903230035 90 95 0.0 0.0 0.00 0.00 0.00 62 1012.7
20260903225533 90 95 0.0 0.0 0.00 0.00 0.00 60 1012.9
20260903225033 90 95 0.0 0.0 0.00 0.00 0.00 61 1012.8
20260903224539 91 95 0.0 0.0 0.00 0.00 0.00 61 1012.8
20260903224034 91 95 0.0 0.0 0.00 0.00 0.00 61 1012.8
20260903223534 91 95 0.0 0.0 0.00 0.00 0.00 62 1013.0
20260903223031 91 95 0.0 0.0 0.00 0.00 0.00 62 1013.1
20260903222531 91 95 0.0 0.0 0.00 0.00 0.00 62 1012.9
20260903222034 90 95 0.0 0.0 0.00 0.00 0.00 61 1012.9
20260903221531 90 95 0.0 0.0 0.00 0.00 0.00 61 1012.9
20260903221030 91 95 0.0 0.0 0.00 0.00 0.00 60 1012.8
20260903220531 91 95 0.0 0.0 0.00 0.00 0.00 58 1012.9
20260903220030 93 95 0.0 0.0 0.00 0.00 0.00 53 1012.8
20260903215530 94 71 0.0 0.0 0.00 0.00 0.00 53 1012.8
20260903215029 94 82 0.0 0.0 0.00 0.00 0.00 50 1012.9
20260903214534 94 95 0.0 0.0 0.00 0.00 0.00 49 1012.9
20260903214029 94 88 0.0 0.0 0.00 0.00 0.00 52 1012.8
20260903213529 94 77 0.0 0.0 0.00 0.00 0.00 54 1012.8
20260903213037 94 95 0.0 0.0 0.00 0.00 0.00 51 1012.9
20260903212529 94 97 0.0 0.0 0.00 0.00 0.00 51 1012.9
20260903212027 94 63 0.0 0.0 0.00 0.00 0.00 52 1013.0
20260903211526 94 77 0.0 0.0 0.00 0.00 0.00 52 1013.0
20260903211025 94 74 0.0 0.0 0.00 0.00 0.00 52 1013.1
20260903210525 95 79 0.0 0.0 0.00 0.00 0.00 50 1013.3
20260903210028 95 125 0.0 0.0 0.00 0.00 0.00 49 1013.3
20260903205525 95 107 0.0 0.0 0.00 0.00 0.00 49 1013.3
20260903205026 95 80 0.0 0.0 0.00 0.00 0.00 50 1013.3
20260903204524 94 86 0.0 0.0 0.00 0.00 0.00 52 1013.4
20260903204024 94 63 0.0 0.0 0.00 0.00 0.00 51 1013.4
20260903203523 94 49 0.0 0.0 0.00 0.00 0.00 52 1013.3
20260903203024 94 57 0.0 0.0 0.00 0.00 0.00 56 1013.3
20260903202523 93 122 0.0 0.0 0.00 0.00 0.00 55 1013.3
20260903202027 91 95 0.0 0.0 0.00 0.00 0.00 61 1013.4
20260903201522 91 95 0.0 0.0 0.00 0.00 0.00 63 1013.4
20260903201022 92 95 0.0 0.0 0.00 0.00 0.00 61 1013.5
20260903200521 92 95 0.0 0.0 0.00 0.00 0.00 61 1013.6
20260903200021 92 95 0.0 0.0 0.00 0.00 0.00 59 1013.6
20260903195519 92 95 0.0 0.0 0.00 0.00 0.00 59 1013.8
20260903195019 93 95 0.0 0.0 0.00 0.00 0.00 55 1013.8
20260903194519 94 94 0.0 0.0 0.00 0.00 0.00 50 1013.9
20260903194025 94 130 0.0 0.0 0.00 0.00 0.00 51 1014.0
20260903193517 94 89 0.0 0.0 0.00 0.00 0.00 52 1014.1
20260903193019 94 93 0.0 0.0 0.00 0.00 0.00 53 1014.0
20260903192517 95 71 0.0 0.0 0.00 0.00 0.00 51 1014.2
20260903192017 95 88 0.0 0.0 0.00 0.00 0.00 52 1014.2
20260903191525 95 209 0.0 0.0 0.00 0.00 0.00 54 1014.2
20260903191017 95 82 0.0 0.0 0.00 0.00 0.00 52 1014.3
20260903190513 94 90 0.0 0.0 0.00 0.00 0.00 55 1014.3
20260903190014 94 119 0.0 0.0 0.00 0.00 0.00 53 1014.6
20260903185512 93 98 0.0 0.0 0.00 0.00 0.00 55 1014.5
20260903185012 93 39 0.0 0.0 0.00 0.00 0.00 56 1014.4
20260903184513 93 346 0.0 0.0 0.00 0.00 0.00 56 1014.5
20260903184012 94 360 0.0 0.0 0.00 0.00 0.00 54 1014.6
20260903183510 94 129 0.0 0.0 0.00 0.00 0.00 53 1014.7
20260903183020 95 88 0.0 0.0 0.00 0.00 0.00 54 1014.9
20260903182508 94 340 0.0 0.0 0.00 0.00 0.00 57 1014.9
20260903182008 93 104 0.0 0.0 0.00 0.00 0.00 55 1014.9
20260903181506 93 223 0.0 0.0 0.00 0.00 0.00 54 1015.0
20260903181006 94 322 0.0 0.0 0.00 0.00 0.00 56 1015.0
20260903180505 94 266 0.0 0.0 0.00 0.00 0.00 58 1015.1
20260903180005 94 241 0.0 0.0 0.00 0.00 0.00 58 1015.2
20260903175504 93 333 0.0 0.0 0.00 0.00 0.00 58 1015.2
20260903175003 94 265 0.0 0.0 0.00 0.00 0.00 56 1015.2
20260903174502 93 346 0.0 0.0 0.00 0.00 0.00 58 1015.3
20260903174003 94 346 0.0 0.0 0.00 0.00 0.00 58 1015.4
20260903173501 93 43 0.0 0.0 0.00 0.00 0.00 61 1015.4
20260903173001 93 297 0.0 0.0 0.00 0.00 0.00 59 1015.4
20260903172502 93 325 0.0 0.0 0.00 0.00 0.00 60 1015.5
20260903172001 93 269 0.0 0.0 0.00 0.00 0.00 60 1015.7
20260903171600 93 355 0.0 0.0 0.00 0.00 0.00 61 1015.7
20260903171059 93 355 0.0 0.0 0.00 0.00 0.00 62 1015.8
20260903170559 92 355 0.0 0.0 0.00 0.00 0.00 62 1015.9
20260903170057 92 187 0.0 0.0 0.00 0.00 0.00 62 1016.0
20260903165556 92 281 0.0 0.0 0.00 0.00 0.00 62 1016.0
20260903165056 92 280 0.0 0.0 0.00 0.00 0.00 63 1016.1
20260903164555 91 200 0.0 0.0 0.00 0.00 0.00 61 1016.1
20260903164055 91 336 0.0 0.0 0.00 0.00 0.00 64 1016.2